Location: アルンシュタイン
(50.0000°N, 10.0000°E)
Time: 05:39:45
(UTC+01:00)

Envisat - Pass Details

Date: 25 October 2021
Orbit: 764 x 766 km, 98.2° (Epoch: 04 December)

Event Time Altitude Azimuth Distance (km) Brightness Sun altitude
Rises 05:39:27 0° 22° (NNE) 3,246 6.7 -22.8°
Reaches altitude 10° 05:42:04 10° 33° (NNE) 2,314 6.0 -22.4°
Maximum altitude 05:46:30 29° 94° (E) 1,371 5.0 -21.7°
Drops below altitude 10° 05:50:53 10° 154° (SSE) 2,297 5.7 -21.0°
Sets 05:53:28 0° 165° (SSE) 3,218 6.3 -20.6°
